Regional Weather Roundup
Issued by NWS Newport/Morehead, NC

Current Version | Previous Version | Text Only | Print | Product List | Glossary On
Versions: 1 2 3 4 5 6 7 8 9 10 11 12 13 14 15 16 17 18 19 20 21 22 23 24 25 26 27 28 29 30 31 32 33 34 35 36 37 38 39 40 41 42 43 44 45 46 47 48 49 50
000
ASUS42 KMHX 231913
RWRMHX
WEATHER ROUNDUP FOR EASTERN NORTH CAROLINA
NATIONAL WEATHER SERVICE NEWPORT/MOREHEAD CITY NC
300 PM EDT TUE MAY 23 2017

NOTE: "FAIR" INDICATES FEW OR NO CLOUDS BELOW 12,000 FEET
WITH NO SIGNIFICANT WEATHER AND/OR OBSTRUCTIONS TO VISIBILITY

NCZ015>017-031-032-045>047-102-103-232000-
NORTH COAST

CITY           SKY/WX    TMP DP  RH WIND       PRES   REMARKS
EDENTON        CLOUDY    70  67  92 E7        29.78F
ELIZABETH CITY LGT RAIN  68  67  96 E14       29.78F
KITTY HAWK     NOT AVBL
MANTEO         CLOUDY    69  68  98 SE7       29.79F FOG

$$

NCZ045>047-081-094-103-104-232000-
CENTRAL COAST

CITY           SKY/WX    TMP DP  RH WIND       PRES   REMARKS
FRISCO         LGT RAIN  73  70  90 SW16G22   29.78F

$$

NCZ095-097-098-100-101-232000-
SOUTHERN COAST

CITY           SKY/WX    TMP DP  RH WIND       PRES   REMARKS
BEAUFORT       CLOUDY    78  73  84 SW20G25   29.76F
CEDAR ISLAND   NOT AVBL
JACKSONVILLE   LGT RAIN  76  74  92 S9        29.74  FOG
PINEY ISLAND   MOCLDY   N/A N/A N/A SW14G23   29.75
WILMINGTON     CLOUDY    80  73  79 SW9       29.74F


$$

NCZ011>013-027>030-043-044-078>080-089-090>093-098-232000-
COASTAL PLAIN

CITY           SKY/WX    TMP DP  RH WIND       PRES   REMARKS
AHOSKIE          N/A     66  64  96 NE8       29.79F
CLINTON        CLOUDY    75  72  90 CALM      29.74F
ELIZABETHTOWN  MOSUNNY   75  72  90 S7        29.74F
GOLDSBORO      NOT AVBL
GREENVILLE     PTSUNNY   72  72 100 NE6       29.77F
HAVELOCK       PTSUNNY   80  71  74 SW15G24   29.75F
KENANSVILLE    LGT RAIN  75  72  88 CALM      29.73F
KINSTON        CLOUDY    75  72  88 NW7       29.74F
NEW BERN       LGT RAIN  78  74  87 S8        29.75F
RICHLANDS      CLOUDY    79  72  79 S9        29.73F
ROCKY MOUNT    LGT RAIN  68  68 100 NE8       29.75F
WASHINGTON     CLOUDY    72  71  96 NE5       29.75F
WHITEVILLE     HVY RAIN  77  71  81 W5        29.73F

$$

AMZ130-135-150-152-154-156-158-170-250-252-270-ANZ085-086-088-633-658-670-232000-
MARINE OBSERVATIONS

STATION/POSITION TIME  TEMP    WIND        PRES    WAVE   SWELL
                       AIR SEA DIR/SP/G            HT/PER HT/PER
                 (UTC) (F)     (DEG/KT/KT) (MB)    (FT/S) (FT/S)
CHESAPEAKE LIGHT NOT AVBL
64 E VA BEACH    1850   67 65   90/ 14/ 17 1009.9    4/ 4   2/ 8
DUCK             1848   65 65   60/ 12/ 13 1008.3
2 E DUCK         1830      65                N/A     3/ 7
OREGON INLET     1842   68 69   90/  5/  7 1008.4
13E OREGON INLT  1848      66                N/A     4/ 6   3/ 6
HATTERAS CG      1848   73 74  190/  8/ 15 1008.1
DIAMOND BUOY     1850   73 77  210/ 19/ 23 1008.4    6/ 6
CAPE LOOKOUT     1800   74     210/ 15/ 19 1008.3
BEAUFORT LAB     1848   76 74  210/ 12/ 17 1007.1
30 SE NEW RVR IN 1808   75 76  230/ 16/ 19 1008.8
30 SE NEW RVR IN 1843      77                N/A     7/ 7
27 SE WRIGHTSVLE 1808   75 75  220/ 12/ 17 1008.0
5 SE WRIGHTSVLE  1808   76 75  200/ 10/ 16 1008.3
225 S CAPE HAT   1850   77 76  190/ 17/ 21 1013.2    4/ 5   2/12
41 SE CHARLESTON 1850   77 78  210/ 17/ 23 1008.5    6/ 6

$$




USA.gov is the U.S. government's official web portal to all federal, state and local government web resources and services.